LECOLEGR

Guest
Details From LECO - A Coruna
To LEGR - Granada
Flight Number -
Tags decoded
Created
Modified
Stats Distance 477 nm / 884 km
Max Altitude 0 ft / 0 m
Waypoints 6
Social Downloads 0
Likes 0
Share VATSIM

Download

Looking for another format? Having issues loading an existing format? Contact us
Advertisement - Login to hide

Notes

Requested: LECO BARKO ZMR HIJ OMIGO LEGR

Route

LECO BARKO ZMR HIJ OMIGO LEGR

ID Type Via Altitude Latitude Longitude Leg Dist Tot Dist Heading (true) Name
O LECO APT - 0 ft / 0 m 43.30226˚ -8.37709˚ - 0 nm - A Coruna
BARKO FIX - 0 ft / 0 m 42.20061˚ -6.94460˚ 91 nm 91 nm 136° / 137° -
ZMR NDB - 0 ft / 0 m 41.52845˚ -5.65174˚ 70 nm 161 nm 124° / 125° ZAMORA NDB
HIJ VOR - 0 ft / 0 m 38.50813˚ -5.09968˚ 183 nm 345 nm 172° / 172° HINOJOSA VOR-DME
OMIGO FIX - 0 ft / 0 m 37.22000˚ -4.90722˚ 77 nm 423 nm 173° / 173° -
O LEGR APT - 0 ft / 0 m 37.18873˚ -3.77736˚ 54 nm 477 nm 92° / 92° Granada

Altitude Profile

Advertisement - Login to hide

Weather


0- 5 10 15 20 25 30 35+ Temperature / ° C

Clouds and Precipitation
Forecast for 2018-05-27 12:00 UTC. Updated 3 hours ago

Ground ~20,000 ft ~40,000 ft Winds

LECO

Details ICAO LECO (LCG)
Name A Coruna
Region Spain
Timezone Europe/Madrid (UTC+2.0)
Stats Elevation 323 ft / 98 m (AMSL)
Location 43.302264° -8.377086°
Runways 1
Magnetic Variation 2.331° W

METAR

LECO 271330Z 32006KT 270V010 9999 BKN020 15/12 Q1017 NOSIG

Decode

TAF

TAF LECO 270800Z 2709/2809 33008KT 9999 SCT015 BKN030 TX17/2714Z TN12/2806Z PROB30 TEMPO 2709/2712 3000 -RA BR BKN010 PROB40 TEMPO 2721/2809 1500 -RA BCFG BKN005 PROB30 TEMPO 2803/2808 0600 BCFG VV002

Decode

Departure Runways

ID Width Length Bearing (true) Bearing (mag) Surface Threshold Offset Overrun Length
04 148 ft / 45 m 6,371 ft / 1,942 m 30.94° 33.27° Asphalt 0 ft / 0 m 194 ft / 59 m
22 148 ft / 45 m 6,371 ft / 1,942 m 210.94° 213.27° Asphalt 0 ft / 0 m 203 ft / 62 m

LEGR

Details ICAO LEGR (GRX)
Name Granada
Region Spain
Timezone Europe/Madrid (UTC+2.0)
Stats Elevation 1,859 ft / 567 m (AMSL)
Location 37.188731° -3.777359°
Runways 1
Magnetic Variation 0.626° W

METAR

LEGR 271330Z 29014KT 260V330 9999 -RA FEW040 SCT060 22/11 Q1015

Decode

TAF

TAF LEGR 270800Z 2709/2809 26006KT 9999 SCT030 TX23/2714Z TN12/2803Z TEMPO 2709/2718 4000 SHRA SCT030TCU PROB30 TEMPO 2709/2718 2000 TSRA SCT015 SCT030CB

Decode

Destination Runways

ID Width Length Bearing (true) Bearing (mag) Surface Threshold Offset Overrun Length
09 147 ft / 45 m 9,511 ft / 2,899 m 89.46° 90.09° Asphalt 0 ft / 0 m 0 ft / 0 m
27 147 ft / 45 m 9,511 ft / 2,899 m 269.48° 270.11° Asphalt 0 ft / 0 m 0 ft / 0 m

Approach Navaids

Runway Type Ident Frequency Range Bearing (true) Bearing (mag) Slope Elevation
09 Localiser GRD 109.30 MHz 18 nm / 33 km 89.49° 90.11° - 1,859 ft / 567 m (AMSL)
09 Glidescope GRD 109.30 MHz 10 nm / 19 km 89.47° 90.10° 3.00° 1,859 ft / 567 m (AMSL)

Popular Alternatives